User: anonymous   Login
Location: Unspecified
(0.0000°N, 0.0000°E)
Time: 06:41:26
(UTC+00:00)
Language:

EGRS 1 - Orbit

View from above orbital plane
View from above orbital plane
View from above satellite
View from above satellite

Ground track
Ground track

The orbit data is extracted from the following two-line orbital elements,

1   729U 64001C   18111.55352391 -.00000029 +00000-0 +18167-4 0  9993
2   729 069.9015 200.0278 0016566 290.4525 069.4801 13.94878592761367
Epoch (UTC): 21 April 2018 13:17:04
Eccentricity: 0.0016566
inclination: 69.9015°
perigee height: 899 km
apogee height: 923 km
right ascension of ascending node: 200.0278°
argument of perigee: 290.4525°
revolutions per day: 13.94878592
mean anomaly at epoch: 69.4801°
orbit number at epoch: 76136

The dashed part of the orbit path shows where the satellite is in the earth's shadow,  

DLR